Weather History for SBQV - February, 2013

Change the Weather History Date:

Sunday, February 10, 2013

  Actual Average Record
Temperature  
Mean Temperature 68 °F -  
Max Temperature 80 °F 80 °F - ()
Min Temperature 57 °F 64 °F - ()
Cooling Degree Days 4    
Growing Degree Days 18 (Base 50)    
Moisture  
Dew Point 63 °F    
Average Humidity 73    
Maximum Humidity 100    
Minimum Humidity 48    
Precipitation  
Precipitation 0.00 in 0.09 in - ()
Sea Level Pressure  
Sea Level Pressure 30.08 in    
Wind  
Wind Speed 8 mph ()    
Max Wind Speed 13 mph    
Max Gust Speed -    
Visibility 6.9 miles    
Events      
T = Trace of Precipitation, MM = Missing Value Source: Averaged Metar Reports

Daily Weather History Graph

Daily Weather History Graph

Search for Another Location

Airport or City:

Trip Planner

Search our weather history database for the weather conditions in past years. The results will help you decide how hot, cold, wet, or windy it might be!

Date:

Astronomy

Feb. 10, 2013 Rise Set
Actual Time 6:38 AM BRST 7:16 PM BRST
Civil Twilight 6:16 AM BRST 7:38 PM BRST
Nautical Twilight 5:50 AM BRST 8:04 PM BRST
Astronomical Twilight 5:24 AM BRST 8:31 PM BRST
Moon 6:44 AM BRST (2/10) 7:27 PM BRST (2/10)
Length of Visible Light 13h 22m
Length of Day
12h 37m
New Moon, 0% of the Moon is Illuminated
Feb 10
New Moon
Feb 17
First Quarter
Feb 25
Full
Mar 4
Last Quarter
Mar 11
New

Hourly Weather History & Observations

Time (BRST) Temp. Heat Index Dew Point Humidity Pressure Visibility Wind Dir Wind Speed Gust Speed Precip Events Conditions
5:30 AM 62.6 °F - 62.6 °F 100% 30.09 in - East 5.8 mph - N/A   Clear
6:00 AM 62.6 °F - 62.6 °F 100% 30.09 in 6.2 mi East 6.9 mph - N/A   Scattered Clouds
7:00 AM 64.4 °F - 64.4 °F 100% 30.09 in 6.2 mi East 9.2 mph - N/A   Mostly Cloudy
7:44 AM 66.2 °F - 64.4 °F 94% 30.12 in 6.2 mi East 8.1 mph - N/A   Scattered Clouds
8:00 AM 68.0 °F - 66.2 °F 94% 30.12 in 6.2 mi East 6.9 mph - N/A   Scattered Clouds
9:00 AM 68.0 °F - 66.2 °F 94% 30.15 in 6.2 mi East 10.4 mph - N/A   Scattered Clouds
10:00 AM 71 °F - 64 °F 74% 29.99 in 12 mi East 9.2 mph - -   Mostly Cloudy
10:00 AM 71.6 °F - 66.2 °F 83% 30.15 in 6.2 mi ENE 10.4 mph - N/A   Mostly Cloudy
11:00 AM 77.0 °F - 64.4 °F 65% 30.15 in 6.2 mi East 12.7 mph - N/A   Mostly Cloudy
12:00 PM 77.0 °F - 64.4 °F 65% 30.15 in 6.2 mi East 11.5 mph - N/A   Mostly Cloudy
1:00 PM 78.8 °F - 62.6 °F 57% 30.12 in 6.2 mi East 12.7 mph - N/A   Mostly Cloudy
2:00 PM 80.6 °F 82.3 °F 64.4 °F 58% 30.09 in 6.2 mi East 10.4 mph - N/A   Mostly Cloudy
3:00 PM 80.6 °F 81.5 °F 60.8 °F 51% 30.06 in 6.2 mi East 11.5 mph - N/A   Scattered Clouds
4:00 PM 79 °F - 64 °F 51% 29.89 in 12 mi SE 8.1 mph - -   Partly Cloudy
4:00 PM 80.6 °F 81.8 °F 62.6 °F 54% 30.06 in 6.2 mi ESE 9.2 mph - N/A   Scattered Clouds
5:00 PM 80.6 °F 81.5 °F 60.8 °F 51% 30.04 in 6.2 mi ESE 12.7 mph - N/A   Scattered Clouds
6:00 PM 80.6 °F 81.1 °F 59.0 °F 48% 30.04 in 6.2 mi ESE 11.5 mph - N/A   Scattered Clouds
7:00 PM 77.0 °F - 60.8 °F 57% 30.04 in 6.2 mi ESE 9.2 mph - N/A   Partly Cloudy
8:00 PM 73.4 °F - 60.8 °F 65% 30.04 in - East 6.9 mph - N/A   Clear
9:00 PM 73.4 °F - 60.8 °F 65% 30.04 in - East 6.9 mph - N/A   Clear
10:00 PM 71.6 °F - 64.4 °F 78% 30.06 in - East 11.5 mph - N/A   Clear
11:00 PM 69.8 °F - 64.4 °F 83% 30.06 in - East 9.2 mph - N/A   Clear
11:15 PM 68.0 °F - 64.4 °F 88% 30.09 in - ESE 8.1 mph - N/A   Clear